Regional Weather Roundup
Issued by NWS Jackson, KY

Home | Current Version | Previous Version | Graphics & Text | Print | Product List | Glossary On
Versions: 1 2 3 4 5 6 7 8 9 10 11 12 13 14 15 16 17 18 19 20 21 22 23 24 25 26 27 28 29 30 31 32 33 34 35 36 37 38 39 40 41 42 43 44 45 46 47 48 49 50
000
ASUS43 KJKL 210610
RWRJKL

EAST KENTUCKY HOURLY WEATHER ROUNDUP
NATIONAL WEATHER SERVICE JACKSON KY
200 AM EDT SUN SEP 21 2014

NOTE: "FAIR" INDICATES FEW OR NO CLOUDS BELOW 12,000 FEET WITH
NO SIGNIFICANT WEATHER AND/OR OBSTRUCTIONS TO VISIBILITY.

* THESE REPORTS ARE NOT UNDER NWS QUALITY CONTROL AND MAY NOT
  REPORT WEATHER SUCH AS PRECIPITATION AND FOG.

KYZ079-080-083-085-087-088-110-112-115-119-120-210700
...EASTERN KENTUCKY...

CITY           SKY/WX    TMP DP  RH WIND       PRES   REMARKS
JACKSON        PTCLDY    65  62  90 CALM      30.01S
6HR MIN TEMP:  65; 6HR MAX TEMP:  73;

LONDON         PTCLDY    65  61  87 CALM      30.02S
6HR MIN TEMP:  64; 6HR MAX TEMP:  75;

SOMERSET*      PTCLDY    64  64 100 CALM      30.02S FOG
MONTICELLO*    CLEAR     62  62 100 CALM      30.02F
6HR MIN TEMP:  61; 6HR MAX TEMP:  71;

WILLIAMSBURG*  PTCLDY    63  63 100 CALM      30.03S
MIDDLESBORO*   MOCLDY    59  59  98 CALM      30.04F
6HR MIN TEMP:  59; 6HR MAX TEMP:  70;

HARLAN APT*    CLOUDY    61  61 100 MISG      30.05S VSB 1/4
BLACK MTN*       N/A     61  54  77 SW6         N/A
PIKEVILLE APT* CLEAR     64  63  94 S3        30.01F
BIG SANDY*     CLEAR     65  64  96 SW3       30.00S
6HR MIN TEMP:  65; 6HR MAX TEMP:  74;

MOREHEAD APT*  PTCLDY    66  63  88 SE6       29.98F
$$

KYZ035-036-041-042-044-050-067-078-099-210700
...CENTRAL KENTUCKY...

CITY           SKY/WX    TMP DP  RH WIND       PRES   REMARKS
MT STERLING*   PTCLDY    66  63  88 SW7       29.98F
FLEMING/MASON* CLEAR     66  63  88 S7        29.95F
DANVILLE*      CLEAR     64  63  94 SW3       30.00F
RICHMOND*      CLEAR     68  63  83 SW6       29.98F
LEXINGTON      PTCLDY    70  64  81 S12       29.96F
6HR MIN TEMP:  70; 6HR MAX TEMP:  75;

FRANKFORT      CLEAR     70  64  81 SW10      29.93F
6HR MIN TEMP:  67; 6HR MAX TEMP:  74;

$$

KYZ091>093-OHZ055-061-077-WVZ005-015-034-035-042-210700
...SOUTHERN OHIO/WEST VIRGINIA...

CITY           SKY/WX    TMP DP  RH WIND       PRES   REMARKS
COVINGTON      MOCLDY    70  64  81 S8        29.90F
COLUMBUS       LGT RAIN  72  63  73 S8        29.88F
DAYTON         MOCLDY    72  65  78 S12G21    29.87F
WILMINGTON     MOCLDY    68  63  84 S10       29.89F
HUNTINGTON     CLEAR     64  63  96 S3        29.96S
CHARLESTON     CLEAR     63  63 100 CALM      29.96F
PINEVILLE*     CLEAR     60  60 100 MISG      30.08S FOG
BECKLEY        CLEAR     62  54  74 SE7       30.05F
BLUEFIELD      CLEAR     63  53  70 SE5       30.07F
$$

VAZ002-007-008-TNZ017-027-036-066-071-210700
...SOUTHWEST VIRGINIA/EAST TENNESSEE...

CITY           SKY/WX    TMP DP  RH WIND       PRES   REMARKS
WISE*          CLEAR     59  54  82 CALM      30.08F
JONESVILLE*    CLEAR     57  57 100 CALM      30.05F FOG
ABINGDON*      CLEAR     59  57  91 CALM      30.06F
BRISTOL        CLEAR     57  54  89 CALM      30.04F
KNOXVILLE      CLEAR     65  61  87 S3        30.01F
OAK RIDGE      CLEAR     65  62  90 CALM      30.04F
CROSSVILLE     CLEAR     66  59  78 SW3       30.08S
NASHVILLE      CLEAR     69  65  86 S3        30.02S
$$

...KEY TO REMARKS...
VSB - VISIBILITY IN MILES
WCI - WIND CHILL INDEX
HX  - HEAT INDEX

$$


USA.gov is the U.S. government's official web portal to all federal, state and local government web resources and services.